Flood From: 18-02-2018 16:00 Until: 19-02-2018 16:00 warning for: Flood Level: Yellow info button

Although rather usual in this region, locally or potentially dangerous phenomena are expected. (such as local winds, summer thunderstorms, rising streams or high waves) Be aware and pay attention to the latest weather updates, especially if you carry out activities exposed to weather or close to a stream or shoreline. 


Meteo18 Weather Cam more information Meteo18 Weather Cam


Thunder radar more information blitzortung!


Rain radar more information rain snow radar


Visit our other weather sites:

Template documentation
and downloads

And another site



Weather Underground History page Text

Daily Summary for December 18, 2017 Units:  Metric    English   Both
« Previous Day
Next Day »
Daily Weekly Monthly Yearly Custom
  High: Low: Average:
Temperature: -17.8 °C -16.1 °C -14.4 °C
Dew Point: -17.8 °C -16.4 °C -15.3 °C
Humidity: Humidity % 75 % 90 %
Wind Speed: 0 km/h 0 km/h 14.6 km/h
Wind Gust: 0 km/h - -
Wind:- - South
Pressure: 0 hPa 34601.5 hPa -
Precipitation: 259.08 mm    
Historical Graphs
 
 
Tabular Data for December 18, 2017
Time Temperature Dew Point Pressure Wind Wind Speed Wind Gust Humidity Rainfall Rate (Hourly)
-17.8 °C -17.8 °C 0 hPa Calm     Humidity % 0 mm
00:02 -16.1 °C -16.4 °C 34818.2 hPa SSW 7.7 km/h 10.3 km/h 96 % 0 mm
00:07 -16.1 °C -16.4 °C 34818.2 hPa SW 7.7 km/h 12.9 km/h 96 % 0 mm
00:12 -16.1 °C -16.4 °C 34818.2 hPa SW 7.7 km/h 15.6 km/h 96 % 0 mm
00:17 -16.1 °C -16.4 °C 34818.2 hPa SW 10.3 km/h 15.6 km/h 96 % 0 mm
00:22 -16.1 °C -16.4 °C 34818.2 hPa SSW 5.1 km/h 15.6 km/h 96 % 7.62 mm
00:27 -16.1 °C -16.4 °C 34818.2 hPa SSW 7.7 km/h 15.6 km/h 96 % 7.62 mm
00:32 -16.1 °C -16.4 °C 34808.1 hPa SSW 5.1 km/h 15.6 km/h 96 % 7.62 mm
00:37 -16 °C -16.3 °C 34808.1 hPa South 7.7 km/h 10.3 km/h 96 % 7.62 mm
00:42 -15.9 °C -16.3 °C 34808.1 hPa SW 15.6 km/h 20.8 km/h 96 % 7.62 mm
00:47 -15.9 °C -16.3 °C 34808.1 hPa WSW 12.9 km/h 20.8 km/h 96 % 7.62 mm
00:52 -15.9 °C -16.2 °C 34797.9 hPa SW 10.3 km/h 20.8 km/h 97 % 7.62 mm
01:02 -15.9 °C -16.1 °C 34797.9 hPa WSW 15.6 km/h 20.8 km/h 97 % 7.62 mm
01:07 -15.9 °C -16.1 °C 34797.9 hPa SSW 12.9 km/h 23.3 km/h 97 % 7.62 mm
01:12 -15.8 °C -16.1 °C 34797.9 hPa SW 15.6 km/h 23.3 km/h 97 % 7.62 mm
01:17 -15.8 °C -16.1 °C 34784.4 hPa SW 10.3 km/h 23.3 km/h 97 % 0 mm
01:22 -15.8 °C -16 °C 34784.4 hPa SW 20.8 km/h 20.8 km/h 97 % 0 mm
01:27 -15.8 °C -16 °C 34784.4 hPa SW 18.2 km/h 20.8 km/h 97 % 0 mm
01:32 -15.8 °C -16 °C 34784.4 hPa SW 12.9 km/h 20.8 km/h 97 % 0 mm
01:42 -15.7 °C -15.9 °C 34784.4 hPa SW 5.1 km/h 25.9 km/h 97 % 7.62 mm
01:52 -15.7 °C -15.9 °C 34774.2 hPa SW 7.7 km/h 18.2 km/h 97 % 7.62 mm
01:57 -15.7 °C -15.9 °C 34774.2 hPa SW 7.7 km/h 23.3 km/h 97 % 7.62 mm
02:02 -15.7 °C -15.9 °C 34774.2 hPa SW 10.3 km/h 23.3 km/h 97 % 7.62 mm
02:12 -15.6 °C -15.8 °C 34760.7 hPa SW 12.9 km/h 18.2 km/h 97 % 12.7 mm
02:17 -15.6 °C -15.8 °C 34760.7 hPa SSW 5.1 km/h 18.2 km/h 97 % 12.7 mm
02:22 -15.6 °C -15.8 °C 34750.5 hPa SSW 5.1 km/h 18.2 km/h 97 % 12.7 mm
02:32 -15.6 °C -15.8 °C 34750.5 hPa South 5.1 km/h 15.6 km/h 97 % 20.32 mm
02:37 -15.5 °C -15.7 °C 34750.5 hPa SW 2.6 km/h 12.9 km/h 97 % 12.7 mm
02:42 -15.5 °C -15.7 °C 34750.5 hPa SW 2.6 km/h 10.3 km/h 97 % 20.32 mm
02:47 -15.4 °C -15.7 °C 34760.7 hPa Calm   10.3 km/h 97 % 25.4 mm
02:52 -15.4 °C -15.7 °C 34750.5 hPa SSE 2.6 km/h 7.7 km/h 97 % 25.4 mm
02:57 -15.4 °C -15.6 °C 34740.4 hPa SSW 2.6 km/h 10.3 km/h 97 % 33.02 mm
03:02 -15.3 °C -15.6 °C 34740.4 hPa SSW 5.1 km/h 10.3 km/h 97 % 38.1 mm
03:07 -15.3 °C -15.5 °C 34726.8 hPa SW 10.3 km/h 15.6 km/h 97 % 33.02 mm
03:12 -15.2 °C -15.4 °C 34726.8 hPa SSW 12.9 km/h 15.6 km/h 97 % 38.1 mm
03:17 -15.2 °C -15.4 °C 34726.8 hPa SW 12.9 km/h 12.9 km/h 97 % 33.02 mm
03:22 -15.1 °C -15.3 °C 34726.8 hPa SW 5.1 km/h 12.9 km/h 97 % 38.1 mm
03:32 -15 °C -15.2 °C 34726.8 hPa SW 7.7 km/h 15.6 km/h 97 % 45.72 mm
03:37 -14.9 °C -15.2 °C 34726.8 hPa WSW 10.3 km/h 15.6 km/h 97 % 45.72 mm
03:42 -14.9 °C -15.2 °C 34716.7 hPa SW 7.7 km/h 15.6 km/h 97 % 50.8 mm
03:47 -14.9 °C -15.1 °C 34716.7 hPa SW 7.7 km/h 18.2 km/h 97 % 50.8 mm
03:52 -14.9 °C -15.1 °C 34703.1 hPa WSW 10.3 km/h 18.2 km/h 97 % 58.42 mm
04:02 -14.9 °C -15.1 °C 34693 hPa SSW 20.8 km/h 23.3 km/h 97 % 58.42 mm
04:12 -14.8 °C -15.1 °C 34682.8 hPa SSW 10.3 km/h 28.5 km/h 97 % 71.12 mm
04:18 -14.8 °C -15.1 °C 34669.3 hPa SSW 31.1 km/h 31.1 km/h 97 % 76.2 mm
04:27 -14.8 °C -15 °C 34659.1 hPa SSW 31.1 km/h 33.6 km/h 97 % 83.82 mm
04:32 -14.8 °C -15 °C 34659.1 hPa SW 12.9 km/h 33.6 km/h 97 % 83.82 mm
04:37 -14.7 °C -14.9 °C 34645.6 hPa WSW 28.5 km/h 36.2 km/h 97 % 83.82 mm
04:42 -14.7 °C -14.9 °C 34645.6 hPa WSW 18.2 km/h 36.2 km/h 97 % 83.82 mm
04:52 -14.7 °C -14.9 °C 34645.6 hPa SW 12.9 km/h 33.6 km/h 97 % 83.82 mm
04:57 -14.6 °C -14.8 °C 34645.6 hPa WSW 15.6 km/h 33.6 km/h 97 % 83.82 mm
05:02 -14.6 °C -14.8 °C 34645.6 hPa West 12.9 km/h 33.6 km/h 97 % 83.82 mm
05:12 -14.6 °C -14.8 °C 34635.4 hPa WSW 7.7 km/h 33.6 km/h 97 % 63.5 mm
05:17 -14.6 °C -14.8 °C 34635.4 hPa WSW 20.8 km/h 23.3 km/h 97 % 50.8 mm
05:22 -14.5 °C -14.7 °C 34635.4 hPa SW 15.6 km/h 23.3 km/h 97 % 50.8 mm
05:27 -14.4 °C -14.7 °C 34635.4 hPa SSW 15.6 km/h 36.2 km/h 97 % 58.42 mm
05:32 -14.4 °C -14.6 °C 34625.2 hPa SW 10.3 km/h 36.2 km/h 97 % 58.42 mm
05:37 -14.4 °C -14.6 °C 34625.2 hPa SW 12.9 km/h 36.2 km/h 97 % 58.42 mm
05:42 -14.4 °C -14.6 °C 34625.2 hPa WSW 10.3 km/h 36.2 km/h 97 % 58.42 mm
05:47 -14.4 °C -14.6 °C 34625.2 hPa WSW 5.1 km/h 36.2 km/h 97 % 58.42 mm
05:57 -14.3 °C -14.6 °C 34625.2 hPa WSW 18.2 km/h 31.1 km/h 97 % 58.42 mm
06:02 -14.3 °C -14.6 °C 34625.2 hPa WSW 7.7 km/h 31.1 km/h 97 % 58.42 mm
06:07 -14.3 °C -14.6 °C 34611.7 hPa WSW 5.1 km/h 25.9 km/h 97 % 58.42 mm
06:12 -14.3 °C -14.5 °C 34611.7 hPa West 5.1 km/h 25.9 km/h 97 % 58.42 mm
06:22 -14.3 °C -14.5 °C 34611.7 hPa West 5.1 km/h 25.9 km/h 97 % 58.42 mm
06:32 -14.2 °C -14.4 °C 34611.7 hPa West 10.3 km/h 18.2 km/h 97 % 38.1 mm
06:42 -14.2 °C -14.4 °C 34611.7 hPa West 12.9 km/h 18.2 km/h 97 % 33.02 mm
06:47 -14.1 °C -14.3 °C 34611.7 hPa WSW 12.9 km/h 20.8 km/h 97 % 25.4 mm
06:52 -14.1 °C -14.3 °C 34611.7 hPa WSW 10.3 km/h 20.8 km/h 97 % 25.4 mm
06:57 -14.1 °C -14.3 °C 34611.7 hPa WNW 15.6 km/h 23.3 km/h 97 % 20.32 mm
07:02 -14 °C -14.2 °C 34625.2 hPa West 12.9 km/h 23.3 km/h 97 % 20.32 mm
07:12 -13.9 °C -14.2 °C 34611.7 hPa West 10.3 km/h 23.3 km/h 97 % 12.7 mm
07:17 -13.8 °C -14.1 °C 34611.7 hPa WNW 7.7 km/h 23.3 km/h 97 % 12.7 mm
07:22 -13.8 °C -14.1 °C 34625.2 hPa WNW 10.3 km/h 23.3 km/h 97 % 12.7 mm
07:27 -13.8 °C -14 °C 34625.2 hPa WNW 15.6 km/h 18.2 km/h 97 % 7.62 mm
07:32 -13.7 °C -13.9 °C 34625.2 hPa WNW 7.7 km/h 18.2 km/h 97 % 7.62 mm
07:37 -13.7 °C -14 °C 34611.7 hPa West 5.1 km/h 25.9 km/h 96 % 7.62 mm
07:42 -13.6 °C -13.9 °C 34611.7 hPa WNW 5.1 km/h 25.9 km/h 96 % 7.62 mm
07:47 -13.6 °C -13.9 °C 34611.7 hPa West 5.1 km/h 23.3 km/h 96 % 12.7 mm
07:52 -13.6 °C -13.9 °C 34611.7 hPa Calm   23.3 km/h 96 % 12.7 mm
08:02 -13.6 °C -13.9 °C 34611.7 hPa WNW 7.7 km/h 23.3 km/h 96 % 12.7 mm
08:07 -13.5 °C -13.8 °C 34611.7 hPa West 2.6 km/h 18.2 km/h 96 % 7.62 mm
08:12 -13.5 °C -13.8 °C 34611.7 hPa WNW 15.6 km/h 18.2 km/h 96 % 7.62 mm
08:17 -13.4 °C -13.8 °C 34601.5 hPa WNW 12.9 km/h 18.2 km/h 96 % 7.62 mm
08:22 -13.4 °C -13.7 °C 34601.5 hPa NW 15.6 km/h 18.2 km/h 96 % 7.62 mm
08:27 -13.4 °C -13.7 °C 34611.7 hPa NW 2.6 km/h 20.8 km/h 96 % 7.62 mm
08:32 -13.3 °C -13.6 °C 34611.7 hPa WNW 10.3 km/h 20.8 km/h 96 % 7.62 mm
08:37 -13.2 °C -13.6 °C 34611.7 hPa WNW 20.8 km/h 28.5 km/h 96 % 7.62 mm
08:42 -13.2 °C -13.6 °C 34625.2 hPa NNW 2.6 km/h 28.5 km/h 96 % 7.62 mm
08:47 -13.2 °C -13.6 °C 34625.2 hPa NW 7.7 km/h 31.1 km/h 95 % 0 mm
08:52 -13.2 °C -13.6 °C 34625.2 hPa NNW 10.3 km/h 31.1 km/h 95 % 0 mm
08:57 -13.2 °C -13.6 °C 34625.2 hPa WNW 10.3 km/h 25.9 km/h 95 % 0 mm
09:02 -13.1 °C -13.6 °C 34625.2 hPa NNW 7.7 km/h 25.9 km/h 95 % 0 mm
09:12 -13.1 °C -13.5 °C 34625.2 hPa NW 15.6 km/h 31.1 km/h 95 % 0 mm
09:17 -13.1 °C -13.5 °C 34625.2 hPa North 20.8 km/h 31.1 km/h 95 % 0 mm
09:22 -13 °C -13.5 °C 34635.4 hPa North 10.3 km/h 31.1 km/h 94 % 0 mm
09:27 -13.1 °C -13.6 °C 34635.4 hPa NW 10.3 km/h 36.2 km/h 94 % 0 mm
09:32 -13 °C -13.5 °C 34635.4 hPa NW 23.3 km/h 36.2 km/h 94 % 0 mm
09:42 -13 °C -13.5 °C 34635.4 hPa WNW 7.7 km/h 31.1 km/h 94 % 0 mm
09:52 -13 °C -13.6 °C 34635.4 hPa NNW 25.9 km/h 31.1 km/h 93 % 0 mm
09:57 -13 °C -13.6 °C 34645.6 hPa West 5.1 km/h 36.2 km/h 93 % 0 mm
10:02 -13 °C -13.7 °C 34645.6 hPa NW 28.5 km/h 36.2 km/h 92 % 0 mm
10:12 -13.1 °C -13.8 °C 34645.6 hPa North 28.5 km/h 41.4 km/h 91 % 0 mm
10:17 -13.1 °C -13.8 °C 34645.6 hPa NNW 18.2 km/h 38.8 km/h 91 % 0 mm
10:22 -13.1 °C -13.8 °C 34645.6 hPa NE 33.6 km/h 38.8 km/h 91 % 0 mm
10:32 -13.1 °C -13.9 °C 34659.1 hPa NE 28.5 km/h 36.2 km/h 91 % 0 mm
10:37 -13.2 °C -14.2 °C 34659.1 hPa NNW 36.2 km/h 44.1 km/h 89 % 0 mm
10:42 -13.3 °C -14.3 °C 34659.1 hPa North 20.8 km/h 44.1 km/h 88 % 0 mm
10:52 -13.4 °C -14.6 °C 34669.3 hPa North 20.8 km/h 57 km/h 87 % 0 mm
11:02 -13.4 °C -14.7 °C 34682.8 hPa NE 36.2 km/h 46.7 km/h 86 % 0 mm
11:12 -13.4 °C -14.8 °C 34682.8 hPa North 44.1 km/h 44.1 km/h 85 % 0 mm
11:17 -13.5 °C -14.6 °C 34682.8 hPa NNE 18.2 km/h 59.5 km/h 87 % 0 mm
11:22 -13.5 °C -14.6 °C 34682.8 hPa NNE 31.1 km/h 59.5 km/h 87 % 0 mm
11:27 -13.5 °C -14.6 °C 34693 hPa NE 31.1 km/h 59.5 km/h 87 % 0 mm
11:32 -13.6 °C -14.7 °C 34693 hPa North 20.8 km/h 59.5 km/h 87 % 0 mm
11:37 -13.5 °C -14.6 °C 34682.8 hPa NNE 18.2 km/h 57 km/h 87 % 0 mm
11:42 -13.4 °C -14.6 °C 34693 hPa NW 31.1 km/h 57 km/h 87 % 0 mm
11:47 -13.5 °C -14.7 °C 34693 hPa NNW 36.2 km/h 44.1 km/h 86 % 0 mm
11:52 -13.6 °C -14.8 °C 34693 hPa NE 12.9 km/h 44.1 km/h 86 % 0 mm
11:57 -13.6 °C -14.8 °C 34693 hPa NNW 28.5 km/h 51.8 km/h 86 % 0 mm
12:07 -13.7 °C -15 °C 34693 hPa NNW 12.9 km/h 51.8 km/h 85 % 0 mm
12:12 -13.7 °C -15.1 °C 34703.1 hPa NNW 41.4 km/h 51.8 km/h 84 % 0 mm
12:17 -13.8 °C -15.2 °C 34703.1 hPa North 23.3 km/h 54.4 km/h 84 % 0 mm
12:22 -13.8 °C -15.2 °C 34703.1 hPa NNW 25.9 km/h 54.4 km/h 85 % 0 mm
12:32 -13.7 °C -15.1 °C 34703.1 hPa North 28.5 km/h 49.2 km/h 84 % 0 mm
12:37 -13.9 °C -15.4 °C 34703.1 hPa NNE 31.1 km/h 51.8 km/h 83 % 0 mm
12:42 -14 °C -15.5 °C 34703.1 hPa NE 18.2 km/h 51.8 km/h 83 % 0 mm
12:47 -13.9 °C -15.3 °C 34703.1 hPa NNE 15.6 km/h 54.4 km/h 84 % 0 mm
12:57 -13.8 °C -15.4 °C 34703.1 hPa NNW 18.2 km/h 44.1 km/h 82 % 0 mm
13:02 -13.8 °C -15.4 °C 34703.1 hPa North 33.6 km/h 44.1 km/h 81 % 0 mm
13:07 -13.7 °C -15.6 °C 34703.1 hPa North 20.8 km/h 41.4 km/h 79 % 0 mm
13:12 -13.8 °C -16.1 °C 34703.1 hPa ENE 36.2 km/h 41.4 km/h 75 % 0 mm
13:17 -13.8 °C -16.1 °C 34703.1 hPa ENE 20.8 km/h 57 km/h 75 % 0 mm
13:22 -13.8 °C -15.9 °C 34716.7 hPa NNE 23.3 km/h 57 km/h 77 % 0 mm
13:27 -13.8 °C -16.1 °C 34703.1 hPa NE 36.2 km/h 57 km/h 75 % 0 mm
13:32 -13.8 °C -15.9 °C 34716.7 hPa NNW 12.9 km/h 57 km/h 77 % 0 mm
13:37 -13.8 °C -16 °C 34716.7 hPa NW 20.8 km/h 51.8 km/h 76 % 0 mm
13:42 -13.8 °C -15.9 °C 34716.7 hPa NE 25.9 km/h 51.8 km/h 77 % 0 mm
13:52 -13.9 °C -16.1 °C 34716.7 hPa NNE 38.8 km/h 54.4 km/h 77 % 0 mm
13:57 -13.9 °C -15.9 °C 34716.7 hPa NNW 20.8 km/h 57 km/h 78 % 0 mm
14:02 -13.9 °C -16.1 °C 34716.7 hPa NNE 23.3 km/h 57 km/h 76 % 0 mm
14:12 -13.9 °C -15.9 °C 34716.7 hPa NW 12.9 km/h 57 km/h 78 % 0 mm
14:17 -13.9 °C -16.1 °C 34716.7 hPa NNE 20.8 km/h 54.4 km/h 77 % 0 mm
14:27 -13.9 °C -15.8 °C 34716.7 hPa North 36.2 km/h 38.8 km/h 79 % 0 mm
14:32 -14 °C -16 °C 34716.7 hPa NNW 23.3 km/h 38.8 km/h 78 % 0 mm
14:42 -14 °C -15.9 °C 34726.8 hPa NE 33.6 km/h 54.4 km/h 79 % 0 mm
14:47 -13.9 °C -15.7 °C 34726.8 hPa NW 15.6 km/h 49.2 km/h 80 % 0 mm
14:52 -14 °C -15.9 °C 34726.8 hPa North 25.9 km/h 49.2 km/h 79 % 0 mm
14:57 -14.1 °C -15.9 °C 34740.4 hPa NE 31.1 km/h 54.4 km/h 79 % 0 mm
15:02 -14.2 °C -15.9 °C 34740.4 hPa NE 20.8 km/h 54.4 km/h 81 % 0 mm
15:12 -14.4 °C -16.1 °C 34740.4 hPa NE 31.1 km/h 54.4 km/h 81 % 0 mm
15:17 -14.5 °C -15.9 °C 34750.5 hPa NNE 20.8 km/h 49.2 km/h 84 % 0 mm
15:22 -14.6 °C -15.8 °C 34750.5 hPa NNE 18.2 km/h 49.2 km/h 85 % 0 mm
15:32 -14.5 °C -15.6 °C 34760.7 hPa North 15.6 km/h 41.4 km/h 87 % 0 mm
15:37 -14.5 °C -15.7 °C 34760.7 hPa NNE 7.7 km/h 33.6 km/h 86 % 0 mm
15:42 -14.4 °C -15.7 °C 34760.7 hPa North 15.6 km/h 33.6 km/h 85 % 0 mm
15:52 -14.5 °C -15.7 °C 34760.7 hPa NNE 12.9 km/h 38.8 km/h 86 % 0 mm
15:57 -14.4 °C -15.7 °C 34760.7 hPa NNW 15.6 km/h 31.1 km/h 86 % 0 mm
16:02 -14.4 °C -15.6 °C 34760.7 hPa NNW 20.8 km/h 31.1 km/h 86 % 0 mm
16:07 -14.4 °C -15.6 °C 34760.7 hPa North 23.3 km/h 38.8 km/h 86 % 0 mm
16:12 -14.4 °C -15.6 °C 34774.2 hPa North 15.6 km/h 38.8 km/h 86 % 0 mm
16:22 -14.5 °C -15.7 °C 34784.4 hPa NNE 28.5 km/h 33.6 km/h 86 % 0 mm
16:27 -14.5 °C -15.7 °C 34784.4 hPa NNE 7.7 km/h 41.4 km/h 86 % 0 mm
16:32 -14.5 °C -15.6 °C 34784.4 hPa NNW 23.3 km/h 41.4 km/h 87 % 0 mm
16:42 -14.5 °C -15.6 °C 34784.4 hPa NNW 15.6 km/h 38.8 km/h 87 % 0 mm
16:47 -14.5 °C -15.6 °C 34797.9 hPa NW 5.1 km/h 38.8 km/h 87 % 0 mm
16:57 -14.5 °C -15.6 °C 34797.9 hPa NE 5.1 km/h 36.2 km/h 87 % 0 mm
17:02 -14.5 °C -15.6 °C 34797.9 hPa NE 18.2 km/h 36.2 km/h 87 % 0 mm
17:12 -14.5 °C -15.6 °C 34797.9 hPa NNE 15.6 km/h 31.1 km/h 87 % 0 mm
17:17 -14.5 °C -15.6 °C 34797.9 hPa NNE 2.6 km/h 33.6 km/h 87 % 0 mm
17:22 -14.6 °C -15.7 °C 34808.1 hPa NNW 7.7 km/h 33.6 km/h 87 % 0 mm
17:32 -14.6 °C -15.7 °C 34797.9 hPa NNW 15.6 km/h 33.6 km/h 87 % 0 mm
17:37 -14.6 °C -15.7 °C 34797.9 hPa NNW 10.3 km/h 28.5 km/h 87 % 0 mm
17:47 -14.6 °C -15.7 °C 34808.1 hPa NNE 20.8 km/h 28.5 km/h 87 % 0 mm
17:52 -14.6 °C -15.6 °C 34808.1 hPa North 12.9 km/h 28.5 km/h 88 % 0 mm
17:57 -14.6 °C -15.6 °C 34818.2 hPa North 15.6 km/h 28.5 km/h 88 % 0 mm
18:02 -14.6 °C -15.6 °C 34818.2 hPa North 7.7 km/h 28.5 km/h 88 % 0 mm
18:07 -14.6 °C -15.6 °C 34818.2 hPa NNE 25.9 km/h 38.8 km/h 88 % 0 mm
18:12 -14.6 °C -15.6 °C 34831.8 hPa NNE 23.3 km/h 33.6 km/h 88 % 0 mm
18:17 -14.6 °C -15.7 °C 34831.8 hPa NNW 20.8 km/h 33.6 km/h 87 % 0 mm
18:22 -14.6 °C -15.7 °C 34831.8 hPa North 23.3 km/h 36.2 km/h 87 % 0 mm
18:32 -14.6 °C -15.7 °C 34818.2 hPa North 5.1 km/h 36.2 km/h 87 % 0 mm
18:42 -14.6 °C -15.7 °C 34831.8 hPa NNW 18.2 km/h 36.2 km/h 87 % 0 mm
18:47 -14.6 °C -15.7 °C 34831.8 hPa North 20.8 km/h 28.5 km/h 87 % 0 mm
18:52 -14.6 °C -15.7 °C 34831.8 hPa NNW 23.3 km/h 28.5 km/h 87 % 0 mm
18:57 -14.6 °C -15.7 °C 34831.8 hPa NE 7.7 km/h 33.6 km/h 87 % 0 mm
19:02 -14.6 °C -15.7 °C 34831.8 hPa NNW 10.3 km/h 33.6 km/h 87 % 0 mm
19:07 -14.6 °C -15.7 °C 34841.9 hPa NNE 12.9 km/h 33.6 km/h 87 % 0 mm
19:12 -14.6 °C -15.7 °C 34841.9 hPa NNE 15.6 km/h 33.6 km/h 87 % 0 mm
19:17 -14.6 °C -15.7 °C 34841.9 hPa NNE 10.3 km/h 33.6 km/h 87 % 0 mm
19:22 -14.6 °C -15.6 °C 34852.1 hPa North 15.6 km/h 33.6 km/h 88 % 0 mm
19:32 -14.6 °C -15.6 °C 34852.1 hPa NE 15.6 km/h 28.5 km/h 88 % 0 mm
19:42 -14.6 °C -15.6 °C 34852.1 hPa NW 5.1 km/h 31.1 km/h 88 % 0 mm
19:47 -14.6 °C -15.6 °C 34852.1 hPa NNW 7.7 km/h 31.1 km/h 88 % 0 mm
19:52 -14.7 °C -15.7 °C 34865.6 hPa NNE 5.1 km/h 31.1 km/h 88 % 0 mm
19:57 -14.6 °C -15.6 °C 34865.6 hPa NNE 7.7 km/h 31.1 km/h 88 % 0 mm
20:02 -14.6 °C -15.6 °C 34865.6 hPa ENE 2.6 km/h 31.1 km/h 88 % 0 mm
20:12 -14.6 °C -15.6 °C 34865.6 hPa NNE 10.3 km/h 31.1 km/h 88 % 0 mm
20:17 -14.6 °C -15.6 °C 34875.8 hPa NW 5.1 km/h 25.9 km/h 88 % 0 mm
20:22 -14.7 °C -15.7 °C 34875.8 hPa NE 12.9 km/h 25.9 km/h 88 % 0 mm
20:32 -14.7 °C -15.7 °C 34875.8 hPa North 5.1 km/h 20.8 km/h 88 % 0 mm
20:42 -14.7 °C -15.6 °C 34889.3 hPa NNE 5.1 km/h 25.9 km/h 89 % 0 mm
20:52 -14.7 °C -15.7 °C 34889.3 hPa NNE 7.7 km/h 25.9 km/h 89 % 0 mm
20:57 -14.7 °C -15.7 °C 34889.3 hPa NNE 10.3 km/h 25.9 km/h 89 % 0 mm
21:02 -14.8 °C -15.7 °C 34889.3 hPa ENE 10.3 km/h 25.9 km/h 89 % 0 mm
21:07 -14.8 °C -15.7 °C 34889.3 hPa ENE 7.7 km/h 20.8 km/h 89 % 0 mm
21:17 -14.8 °C -15.7 °C 34889.3 hPa North 15.6 km/h 25.9 km/h 89 % 0 mm
21:22 -14.7 °C -15.7 °C 34889.3 hPa NNE 5.1 km/h 25.9 km/h 89 % 0 mm
21:27 -14.7 °C -15.7 °C 34889.3 hPa NE 12.9 km/h 25.9 km/h 89 % 0 mm
21:32 -14.8 °C -15.7 °C 34889.3 hPa North 7.7 km/h 25.9 km/h 89 % 0 mm
21:42 -14.7 °C -15.7 °C 34899.5 hPa NNW 12.9 km/h 23.3 km/h 88 % 0 mm
21:52 -14.7 °C -15.7 °C 34899.5 hPa NE 10.3 km/h 31.1 km/h 88 % 0 mm
21:57 -14.7 °C -15.7 °C 34899.5 hPa North 2.6 km/h 31.1 km/h 88 % 0 mm
22:02 -14.7 °C -15.7 °C 34899.5 hPa NE 15.6 km/h 31.1 km/h 88 % 0 mm
22:12 -14.8 °C -15.7 °C 34899.5 hPa NNW 2.6 km/h 20.8 km/h 89 % 0 mm
22:17 -14.8 °C -15.7 °C 34899.5 hPa NNE 7.7 km/h 20.8 km/h 89 % 0 mm
22:22 -14.8 °C -15.7 °C 34899.5 hPa North 18.2 km/h 20.8 km/h 89 % 0 mm
22:32 -14.8 °C -15.7 °C 34899.5 hPa North 15.6 km/h 25.9 km/h 89 % 0 mm
22:42 -14.8 °C -15.7 °C 34909.7 hPa ENE 15.6 km/h 28.5 km/h 89 % 0 mm
22:47 -14.8 °C -15.7 °C 34909.7 hPa NNW 10.3 km/h 20.8 km/h 89 % 0 mm
22:52 -14.8 °C -15.7 °C 34909.7 hPa North 10.3 km/h 20.8 km/h 89 % 0 mm
23:02 -14.8 °C -15.8 °C 34909.7 hPa North 5.1 km/h 23.3 km/h 88 % 0 mm
23:12 -14.8 °C -15.9 °C 34923.2 hPa NNE 2.6 km/h 18.2 km/h 87 % 0 mm
23:17 -14.7 °C -15.9 °C 34923.2 hPa NNE 10.3 km/h 18.2 km/h 86 % 0 mm
23:22 -14.7 °C -15.9 °C 34923.2 hPa NNE 12.9 km/h 18.2 km/h 86 % 0 mm
23:32 -14.7 °C -15.9 °C 34933.4 hPa North 5.1 km/h 23.3 km/h 85 % 0 mm
23:37 -14.7 °C -15.9 °C 34933.4 hPa NNW 15.6 km/h 23.3 km/h 85 % 0 mm
23:42 -14.7 °C -15.9 °C 34946.9 hPa NE 5.1 km/h 23.3 km/h 85 % 0 mm
23:52 -14.7 °C -15.9 °C 34946.9 hPa North 10.3 km/h 18.2 km/h 85 % 0 mm
23:57 -14.7 °C -15.9 °C 34946.9 hPa NNE 7.7 km/h 18.2 km/h 85 % 0 mm
Meteo18
Compliments of Weather Underground - 4 mb

Script developed by  Jim McMurry - jmcmurry@mwt.net Adapted for the template by  Wim van der Kuil - Leuven-Template.eu

You find our weather info also at:

European Weather Network

Weather Underground

Equipment we use:

Weather-station
Davis Vue

Weather-program
Meteobridge

Weather-server
Raspberry PI 2 B+

Provider
1 and 1

Davis Vue

Meteobridge

Raspberry PI 2 B+

1 and 1